Aérodrome :
LOGIN :

S'inscrire | Disclaimer

   EN    FR    IT 

 










Légende :    VFR   VFR Marginal   IFR   IFR Intensif   IFR Très Intensif
Visi : 
Plafond : 
>= 8 km
>= 3000ft
5 à 8 km
1000 à 3000 ft
1500m à 5 km
500 à 1000 ft
800 à 1500m
200 à 500 ft
< 800m
< 200 ft
Symboles :   Orages  Brouillard  Fortes neiges  Fortes précipitations  Vent > 20 kt
SIGMETs :   Divers  Orages  Givrage  Turbulence  Onde Orograph.  Cendres Volcan.






- Altitude de l'aérodrome : 286 ft
- Code IATA : FFD


EGVA - RAF Fairford

DERNIER METAR :
  • 291755Z AUTO 22007KT 9999 CLR 06/06 A3017 RMK AO2 SLP222 T00580057 10093 20058 56009 PWINO FZRANO $

METARs EXPIRÉS :
  • 291655Z AUTO 22008KT 9999 CLR 07/07 A3017 RMK AO2 SLP222 T00710070 PWINO FZRANO $
  • 291555Z AUTO 22010KT 9999 FEW015 FEW021 09/08 A3017 RMK AO2 SLP222 T00860084 PWINO FZRANO $

Prévision TAF périmée.



MET'MAP, la Météo Aéronautique d'un coup d'oeil ! - Copyright ORBIFLY Décembre 2007 - Disclaimer

ORBIFLY MET'MAP TEAM :

Programmation & Développement : Alexandra Zaïnal
Sur une idée originale de : Baudouin d'Aumeries
Soutien technique & logistique : Manuel Goepfert
Assistance : Marc-Olivier Méhu




SOURCES & CREDITS :

   NOAA